| time (UTC) | temp F | wind direction | speed MPH | gust MPH | rain 1hr in | rain 24hr in | rain mn in | humidity % | barometer mb |
| 20260502162504 | 40 | 29 | 2.0 | 5.0 | 0.00 | 0.30 | 0.19 | 91 | 1015.9 |
| 20260502161503 | 39 | 326 | 1.0 | 3.0 | 0.00 | 0.31 | 0.19 | 91 | 1015.9 |
| 20260502161005 | 39 | 325 | 1.0 | 3.0 | 0.00 | 0.31 | 0.19 | 92 | 1015.9 |
| 20260502160504 | 39 | 320 | 2.0 | 4.0 | 0.00 | 0.32 | 0.19 | 91 | 1015.9 |
| 20260502152005 | 38 | 314 | 1.0 | 4.0 | 0.00 | 0.35 | 0.19 | 92 | 1015.8 |
| 20260502151504 | 38 | 323 | 1.0 | 4.0 | 0.00 | 0.36 | 0.19 | 92 | 1015.7 |
| 20260502150504 | 38 | 58 | 1.0 | 3.0 | 0.00 | 0.36 | 0.19 | 91 | 1015.6 |
| 20260502130503 | 38 | 322 | 1.0 | 6.0 | 0.00 | 0.48 | 0.19 | 92 | 1014.6 |
| 20260502123504 | 38 | 34 | 1.0 | 4.0 | 0.00 | 0.48 | 0.19 | 92 | 1014.6 |
| 20260502122504 | 38 | 53 | 1.0 | 3.0 | 0.00 | 0.48 | 0.19 | 92 | 1014.6 |
| 20260502121504 | 38 | 90 | 1.0 | 4.0 | 0.00 | 0.48 | 0.19 | 92 | 1014.5 |
| 20260502115504 | 38 | 72 | 1.0 | 4.0 | 0.00 | 0.48 | 0.19 | 92 | 1014.3 |
| 20260502114503 | 38 | 67 | 0.0 | 2.0 | 0.00 | 0.48 | 0.19 | 92 | 1014.4 |
| 20260502113504 | 38 | 60 | 1.0 | 4.0 | 0.00 | 0.48 | 0.19 | 92 | 1014.2 |
| 20260502113005 | 38 | 47 | 0.0 | 3.0 | 0.00 | 0.48 | 0.19 | 92 | 1014.3 |
| 20260502112005 | 39 | 290 | 1.0 | 3.0 | 0.00 | 0.48 | 0.19 | 92 | 1014.3 |
| 20260502111004 | 39 | 285 | 0.0 | 3.0 | 0.00 | 0.48 | 0.19 | 92 | 1014.3 |
| 20260502110504 | 39 | 0 | 0.0 | 0.0 | 0.01 | 0.48 | 0.19 | 92 | 1014.3 |
| 20260502110004 | 39 | 0 | 0.0 | 0.0 | 0.01 | 0.48 | 0.19 | 92 | 1014.2 |
| 20260502105004 | 39 | 0 | 0.0 | 0.0 | 0.01 | 0.48 | 0.19 | 92 | 1014.1 |
| 20260502104503 | 39 | 0 | 0.0 | 0.0 | 0.01 | 0.48 | 0.19 | 92 | 1014.1 |
| 20260502104005 | 39 | 0 | 0.0 | 0.0 | 0.01 | 0.48 | 0.19 | 92 | 1014.0 |
| 20260502103005 | 39 | 0 | 0.0 | 0.0 | 0.01 | 0.48 | 0.19 | 92 | 1013.9 |
| 20260502102504 | 39 | 0 | 0.0 | 0.0 | 0.01 | 0.48 | 0.19 | 92 | 1013.8 |
| 20260502102004 | 39 | 0 | 0.0 | 0.0 | 0.01 | 0.48 | 0.19 | 92 | 1013.8 |
| 20260502101504 | 39 | 0 | 0.0 | 0.0 | 0.01 | 0.48 | 0.19 | 92 | 1013.8 |
| 20260502101004 | 39 | 0 | 0.0 | 0.0 | 0.01 | 0.48 | 0.19 | 92 | 1013.8 |
| 20260502091503 | 39 | 0 | 0.0 | 0.0 | 0.04 | 0.47 | 0.18 | 92 | 1013.6 |
| 20260502091005 | 39 | 0 | 0.0 | 0.0 | 0.04 | 0.47 | 0.18 | 92 | 1013.7 |
| 20260502090504 | 39 | 0 | 0.0 | 0.0 | 0.03 | 0.46 | 0.17 | 92 | 1013.7 |
| 20260502071503 | 38 | 0 | 0.0 | 0.0 | 0.02 | 0.41 | 0.12 | 90 | 1013.5 |
| 20260502071005 | 38 | 0 | 0.0 | 0.0 | 0.02 | 0.41 | 0.12 | 90 | 1013.6 |
| 20260502070503 | 38 | 0 | 0.0 | 0.0 | 0.04 | 0.41 | 0.12 | 90 | 1013.6 |
| 20260502070005 | 38 | 0 | 0.0 | 0.0 | 0.05 | 0.41 | 0.12 | 90 | 1013.7 |
| 20260502065004 | 38 | 0 | 0.0 | 0.0 | 0.05 | 0.41 | 0.12 | 90 | 1013.7 |
| 20260502064004 | 38 | 0 | 0.0 | 0.0 | 0.05 | 0.40 | 0.11 | 89 | 1013.8 |
| 20260502063504 | 38 | 0 | 0.0 | 0.0 | 0.07 | 0.40 | 0.11 | 89 | 1013.8 |
| 20260502063004 | 38 | 279 | 0.0 | 1.0 | 0.07 | 0.40 | 0.11 | 89 | 1013.9 |
| 20260502062504 | 38 | 279 | 0.0 | 1.0 | 0.08 | 0.40 | 0.11 | 89 | 1013.9 |
| 20260502062004 | 38 | 279 | 0.0 | 2.0 | 0.09 | 0.40 | 0.11 | 89 | 1014.0 |
| 20260502060504 | 40 | 0 | 0.0 | 0.0 | 0.07 | 0.37 | 0.08 | 90 | 1014.2 |
| 20260502060004 | 40 | 0 | 0.0 | 0.0 | 0.07 | 0.36 | 0.07 | 90 | 1014.2 |
| 20260502055504 | 40 | 278 | 0.0 | 1.0 | 0.07 | 0.36 | 0.07 | 90 | 1014.3 |
| 20260502055005 | 41 | 291 | 1.0 | 3.0 | 0.07 | 0.36 | 0.07 | 91 | 1014.4 |
| 20260502054504 | 41 | 295 | 1.0 | 3.0 | 0.06 | 0.35 | 0.06 | 90 | 1014.5 |
| 20260502054004 | 41 | 300 | 2.0 | 5.0 | 0.06 | 0.35 | 0.06 | 91 | 1014.5 |
| 20260502053504 | 41 | 297 | 2.0 | 5.0 | 0.04 | 0.33 | 0.04 | 91 | 1014.6 |
| 20260502052504 | 41 | 293 | 0.0 | 4.0 | 0.03 | 0.32 | 0.03 | 90 | 1014.6 |
| 20260502052004 | 41 | 0 | 0.0 | 0.0 | 0.02 | 0.31 | 0.02 | 91 | 1014.6 |
| 20260502051503 | 40 | 0 | 0.0 | 0.0 | 0.01 | 0.30 | 0.01 | 90 | 1014.5 |
| 20260502051005 | 40 | 0 | 0.0 | 0.0 | 0.01 | 0.30 | 0.01 | 90 | 1014.6 |
| 20260502050504 | 40 | 0 | 0.0 | 0.0 | 0.00 | 0.29 | 0.00 | 90 | 1014.4 |
| 20260502050004 | 40 | 0 | 0.0 | 0.0 | 0.00 | 0.29 | 0.00 | 90 | 1014.3 |
| 20260502045504 | 40 | 0 | 0.0 | 0.0 | 0.00 | 0.29 | 0.00 | 90 | 1014.3 |
| 20260502045004 | 40 | 0 | 0.0 | 0.0 | 0.00 | 0.29 | 0.00 | 90 | 1014.3 |
| 20260502044504 | 40 | 0 | 0.0 | 0.0 | 0.00 | 0.29 | 0.00 | 90 | 1014.4 |
| 20260502044004 | 40 | 0 | 0.0 | 0.0 | 0.00 | 0.29 | 0.00 | 90 | 1014.5 |
| 20260502043503 | 40 | 0 | 0.0 | 0.0 | 0.00 | 0.29 | 0.00 | 90 | 1014.6 |
| 20260502043005 | 40 | 0 | 0.0 | 0.0 | 0.00 | 0.29 | 0.00 | 90 | 1014.5 |
| 20260502042004 | 40 | 0 | 0.0 | 0.0 | 0.00 | 0.29 | 0.00 | 90 | 1014.5 |
| 20260502041504 | 40 | 0 | 0.0 | 0.0 | 0.00 | 0.29 | 0.00 | 90 | 1014.5 |
| 20260502041004 | 40 | 0 | 0.0 | 0.0 | 0.00 | 0.29 | 0.00 | 90 | 1014.6 |
| 20260502040504 | 40 | 0 | 0.0 | 0.0 | 0.00 | 0.29 | 0.00 | 90 | 1014.6 |
| 20260502040008 | 40 | 0 | 0.0 | 0.0 | 0.00 | 0.29 | 0.00 | 90 | 1014.7 |
| 20260502035504 | 40 | 0 | 0.0 | 0.0 | 0.00 | 0.29 | 0.29 | 89 | 1014.6 |
| 20260502035004 | 40 | 0 | 0.0 | 0.0 | 0.00 | 0.29 | 0.29 | 89 | 1014.7 |
| 20260502034504 | 40 | 0 | 0.0 | 0.0 | 0.00 | 0.29 | 0.29 | 89 | 1014.6 |
| 20260502034004 | 40 | 0 | 0.0 | 0.0 | 0.00 | 0.29 | 0.29 | 89 | 1014.5 |
| 20260502033004 | 40 | 0 | 0.0 | 0.0 | 0.00 | 0.29 | 0.29 | 89 | 1014.4 |
| 20260502032005 | 40 | 0 | 0.0 | 0.0 | 0.00 | 0.29 | 0.29 | 89 | 1014.3 |
| 20260502031503 | 40 | 0 | 0.0 | 0.0 | 0.00 | 0.29 | 0.29 | 89 | 1014.3 |
| 20260502031004 | 39 | 0 | 0.0 | 0.0 | 0.00 | 0.29 | 0.29 | 88 | 1014.4 |
| 20260502030004 | 40 | 0 | 0.0 | 0.0 | 0.00 | 0.29 | 0.29 | 88 | 1014.4 |
| 20260502025503 | 40 | 0 | 0.0 | 0.0 | 0.00 | 0.29 | 0.29 | 88 | 1014.2 |
| 20260502024004 | 40 | 0 | 0.0 | 0.0 | 0.00 | 0.29 | 0.29 | 87 | 1014.2 |
| 20260502023503 | 40 | 0 | 0.0 | 0.0 | 0.00 | 0.29 | 0.29 | 87 | 1014.3 |
| 20260502023004 | 40 | 0 | 0.0 | 0.0 | 0.00 | 0.29 | 0.29 | 87 | 1014.2 |
| 20260502022005 | 40 | 0 | 0.0 | 0.0 | 0.00 | 0.29 | 0.29 | 87 | 1014.2 |
| 20260502020503 | 40 | 0 | 0.0 | 0.0 | 0.00 | 0.29 | 0.29 | 87 | 1014.1 |
| 20260502015503 | 40 | 0 | 0.0 | 0.0 | 0.00 | 0.29 | 0.29 | 86 | 1014.0 |
| 20260502015004 | 40 | 0 | 0.0 | 0.0 | 0.00 | 0.29 | 0.29 | 86 | 1014.1 |
| 20260502014503 | 40 | 0 | 0.0 | 0.0 | 0.00 | 0.29 | 0.29 | 85 | 1014.0 |
| 20260502014005 | 40 | 0 | 0.0 | 0.0 | 0.00 | 0.29 | 0.29 | 85 | 1014.0 |
| 20260502013503 | 41 | 0 | 0.0 | 0.0 | 0.00 | 0.29 | 0.29 | 85 | 1014.0 |
| 20260502013004 | 41 | 0 | 0.0 | 0.0 | 0.00 | 0.29 | 0.29 | 84 | 1014.0 |
| 20260502012503 | 41 | 0 | 0.0 | 0.0 | 0.00 | 0.29 | 0.29 | 84 | 1013.9 |
| 20260502012004 | 41 | 0 | 0.0 | 0.0 | 0.00 | 0.29 | 0.29 | 83 | 1013.9 |
| 20260502011004 | 41 | 0 | 0.0 | 0.0 | 0.00 | 0.29 | 0.29 | 83 | 1013.8 |
| 20260502010504 | 41 | 289 | 0.0 | 1.0 | 0.00 | 0.29 | 0.29 | 83 | 1013.8 |
| 20260502010004 | 42 | 289 | 0.0 | 1.0 | 0.00 | 0.29 | 0.29 | 83 | 1013.7 |
| 20260502005503 | 42 | 0 | 0.0 | 0.0 | 0.00 | 0.29 | 0.29 | 82 | 1013.7 |
| 20260502005005 | 42 | 0 | 0.0 | 0.0 | 0.00 | 0.29 | 0.29 | 82 | 1013.6 |
| 20260502004503 | 42 | 0 | 0.0 | 0.0 | 0.00 | 0.29 | 0.29 | 82 | 1013.4 |
| 20260502004005 | 42 | 0 | 0.0 | 0.0 | 0.00 | 0.29 | 0.29 | 82 | 1013.3 |
| 20260502002504 | 43 | 289 | 0.0 | 1.0 | 0.00 | 0.29 | 0.29 | 83 | 1012.9 |
| 20260502002005 | 43 | 290 | 1.0 | 3.0 | 0.00 | 0.29 | 0.29 | 84 | 1012.9 |
| 20260502001004 | 43 | 291 | 1.0 | 3.0 | 0.00 | 0.29 | 0.29 | 84 | 1012.8 |
| 20260502000503 | 43 | 296 | 1.0 | 3.0 | 0.00 | 0.29 | 0.29 | 84 | 1012.7 |
| 20260501235504 | 43 | 305 | 0.0 | 3.0 | 0.00 | 0.29 | 0.29 | 84 | 1012.5 |
| 20260501235005 | 43 | 304 | 0.0 | 1.0 | 0.00 | 0.29 | 0.29 | 84 | 1012.4 |
| 20260501234506 | 43 | 304 | 1.0 | 3.0 | 0.00 | 0.29 | 0.29 | 84 | 1012.5 |
| 20260501233504 | 43 | 305 | 1.0 | 3.0 | 0.00 | 0.29 | 0.29 | 84 | 1012.5 |
| 20260501232504 | 43 | 308 | 1.0 | 4.0 | 0.00 | 0.29 | 0.29 | 84 | 1012.6 |
| 20260501232005 | 43 | 323 | 0.0 | 3.0 | 0.00 | 0.29 | 0.29 | 85 | 1012.6 |
| 20260501231504 | 43 | 325 | 1.0 | 4.0 | 0.00 | 0.29 | 0.29 | 85 | 1012.6 |
| 20260501230504 | 43 | 15 | 1.0 | 3.0 | 0.00 | 0.29 | 0.29 | 85 | 1012.6 |
| 20260501230055 | 43 | 357 | 2.0 | 4.0 | 0.00 | 0.29 | 0.29 | 86 | 1012.5 |
| 20260501225506 | 43 | 343 | 2.0 | 5.0 | 0.00 | 0.29 | 0.29 | 86 | 1012.5 |
| 20260501224505 | 43 | 328 | 2.0 | 7.0 | 0.00 | 0.29 | 0.29 | 87 | 1012.4 |
| 20260501224005 | 43 | 315 | 2.0 | 7.0 | 0.00 | 0.29 | 0.29 | 87 | 1012.3 |
| 20260501223504 | 43 | 318 | 3.0 | 6.0 | 0.00 | 0.29 | 0.29 | 87 | 1012.2 |
| 20260501222504 | 43 | 2 | 2.0 | 8.0 | 0.00 | 0.29 | 0.29 | 88 | 1012.2 |
| 20260501222005 | 43 | 359 | 1.0 | 6.0 | 0.00 | 0.29 | 0.29 | 88 | 1012.0 |
| 20260501221504 | 43 | 15 | 1.0 | 6.0 | 0.00 | 0.29 | 0.29 | 89 | 1012.0 |
| 20260501221005 | 43 | 5 | 2.0 | 6.0 | 0.00 | 0.29 | 0.29 | 89 | 1012.0 |
| 20260501220005 | 43 | 346 | 2.0 | 5.0 | 0.00 | 0.29 | 0.29 | 90 | 1011.9 |
| 20260501215504 | 43 | 345 | 3.0 | 10.0 | 0.00 | 0.29 | 0.29 | 90 | 1011.9 |
| 20260501215005 | 43 | 342 | 3.0 | 10.0 | 0.00 | 0.29 | 0.29 | 90 | 1012.0 |
| 20260501214503 | 43 | 344 | 3.0 | 6.0 | 0.00 | 0.29 | 0.29 | 90 | 1011.9 |
| 20260501214004 | 43 | 340 | 3.0 | 6.0 | 0.01 | 0.29 | 0.29 | 90 | 1011.9 |
| 20260501213504 | 43 | 342 | 2.0 | 6.0 | 0.01 | 0.29 | 0.29 | 91 | 1011.9 |
| 20260501213004 | 42 | 346 | 2.0 | 5.0 | 0.01 | 0.29 | 0.29 | 91 | 1011.8 |
| 20260501212504 | 42 | 342 | 2.0 | 4.0 | 0.01 | 0.29 | 0.29 | 90 | 1011.7 |
| 20260501212005 | 42 | 339 | 2.0 | 8.0 | 0.01 | 0.29 | 0.29 | 90 | 1011.7 |
| 20260501211504 | 42 | 347 | 3.0 | 9.0 | 0.01 | 0.29 | 0.29 | 90 | 1011.7 |
| 20260501210504 | 42 | 330 | 3.0 | 10.0 | 0.01 | 0.29 | 0.29 | 90 | 1011.6 |
| 20260501210005 | 42 | 345 | 3.0 | 10.0 | 0.01 | 0.29 | 0.29 | 90 | 1011.5 |
| 20260501205504 | 42 | 354 | 3.0 | 12.0 | 0.01 | 0.29 | 0.29 | 90 | 1011.6 |
| 20260501205004 | 43 | 348 | 3.0 | 12.0 | 0.01 | 0.29 | 0.29 | 90 | 1011.5 |
| 20260501204505 | 43 | 347 | 3.0 | 9.0 | 0.01 | 0.29 | 0.29 | 90 | 1011.3 |
| 20260501204005 | 43 | 345 | 2.0 | 8.0 | 0.00 | 0.28 | 0.28 | 90 | 1011.2 |
| 20260501203504 | 43 | 355 | 3.0 | 8.0 | 0.00 | 0.28 | 0.28 | 90 | 1011.1 |
| 20260501201504 | 43 | 346 | 2.0 | 7.0 | 0.00 | 0.28 | 0.28 | 91 | 1011.0 |
| 20260501201005 | 43 | 345 | 2.0 | 7.0 | 0.00 | 0.28 | 0.28 | 91 | 1011.0 |
| 20260501200504 | 43 | 335 | 1.0 | 6.0 | 0.00 | 0.28 | 0.28 | 91 | 1011.1 |
| 20260501200004 | 43 | 336 | 2.0 | 6.0 | 0.00 | 0.28 | 0.28 | 91 | 1011.1 |
| 20260501195503 | 44 | 348 | 3.0 | 7.0 | 0.00 | 0.28 | 0.28 | 90 | 1011.1 |
| 20260501195004 | 44 | 339 | 2.0 | 7.0 | 0.00 | 0.28 | 0.28 | 91 | 1011.1 |
| 20260501194004 | 44 | 347 | 2.0 | 5.0 | 0.01 | 0.28 | 0.28 | 91 | 1010.9 |
| 20260501193004 | 44 | 343 | 3.0 | 9.0 | 0.01 | 0.28 | 0.28 | 91 | 1010.8 |
| 20260501192504 | 44 | 348 | 2.0 | 9.0 | 0.01 | 0.28 | 0.28 | 91 | 1010.8 |
| 20260501192005 | 44 | 347 | 1.0 | 5.0 | 0.01 | 0.28 | 0.28 | 91 | 1010.8 |
| 20260501191005 | 44 | 329 | 2.0 | 9.0 | 0.02 | 0.28 | 0.28 | 91 | 1010.8 |
| 20260501190504 | 44 | 330 | 2.0 | 9.0 | 0.03 | 0.28 | 0.28 | 91 | 1010.7 |
| 20260501185504 | 44 | 339 | 2.0 | 4.0 | 0.04 | 0.28 | 0.28 | 91 | 1010.7 |
| 20260501185004 | 44 | 354 | 1.0 | 3.0 | 0.04 | 0.28 | 0.28 | 91 | 1010.6 |
| 20260501184004 | 44 | 340 | 2.0 | 6.0 | 0.04 | 0.27 | 0.27 | 91 | 1010.6 |
| 20260501183504 | 44 | 338 | 2.0 | 6.0 | 0.05 | 0.27 | 0.27 | 91 | 1010.5 |
| 20260501183004 | 44 | 332 | 2.0 | 4.0 | 0.05 | 0.27 | 0.27 | 91 | 1010.5 |
| 20260501182503 | 44 | 337 | 2.0 | 4.0 | 0.05 | 0.28 | 0.27 | 91 | 1010.4 |
| 20260501182004 | 44 | 338 | 2.0 | 5.0 | 0.06 | 0.29 | 0.27 | 91 | 1010.4 |
| 20260501181004 | 44 | 327 | 1.0 | 3.0 | 0.06 | 0.28 | 0.26 | 91 | 1010.5 |
| 20260501180504 | 44 | 330 | 1.0 | 3.0 | 0.06 | 0.27 | 0.25 | 91 | 1010.4 |
| 20260501180004 | 44 | 334 | 0.0 | 3.0 | 0.06 | 0.27 | 0.25 | 91 | 1010.3 |
| 20260501175504 | 44 | 0 | 0.0 | 0.0 | 0.05 | 0.26 | 0.24 | 91 | 1010.3 |
| 20260501175005 | 44 | 0 | 0.0 | 0.0 | 0.05 | 0.26 | 0.24 | 91 | 1010.2 |
| 20260501174504 | 44 | 288 | 0.0 | 3.0 | 0.05 | 0.25 | 0.23 | 91 | 1010.3 |
| 20260501174005 | 44 | 288 | 1.0 | 3.0 | 0.05 | 0.25 | 0.23 | 91 | 1010.2 |
| 20260501173005 | 44 | 288 | 2.0 | 4.0 | 0.04 | 0.24 | 0.22 | 90 | 1010.3 |
| 20260501172005 | 44 | 288 | 2.0 | 3.0 | 0.03 | 0.23 | 0.21 | 90 | 1010.1 |
| 20260501171504 | 44 | 287 | 1.0 | 4.0 | 0.03 | 0.22 | 0.20 | 90 | 1010.2 |
| 20260501171007 | 44 | 287 | 0.0 | 4.0 | 0.03 | 0.22 | 0.20 | 90 | 1010.3 |
| 20260501170509 | 44 | 0 | 0.0 | 0.0 | 0.03 | 0.21 | 0.19 | 90 | 1010.2 |
| 20260501170005 | 44 | 285 | 1.0 | 4.0 | 0.03 | 0.21 | 0.19 | 90 | 1010.1 |
| 20260501165504 | 44 | 298 | 2.0 | 6.0 | 0.04 | 0.21 | 0.19 | 90 | 1010.1 |
| 20260501165004 | 44 | 306 | 3.0 | 8.0 | 0.03 | 0.20 | 0.18 | 90 | 1010.1 |
| 20260501164503 | 44 | 310 | 3.0 | 8.0 | 0.04 | 0.20 | 0.18 | 90 | 1010.1 |
| 20260501164005 | 44 | 302 | 2.0 | 6.0 | 0.04 | 0.20 | 0.18 | 90 | 1010.1 |
| 20260501163504 | 44 | 286 | 1.0 | 4.0 | 0.04 | 0.20 | 0.18 | 90 | 1010.1 |